Вернуться в каталог

ONEWEB-0617

АктивенСвязьPO
NORAD 55158·PAYLOAD·🇬🇧 United Kingdom

Запущен Jan 10, 2023 с Cape Canaveral Space Force Station

Loading…

Ближайшие Пролёты (ближайшие 24 часа)

TLE

СвежийSource: CelesTrak SupGP

Эпоха: Sep 14, 2026, 15:52 UTC

1 55158C 23004U   26257.66127732  .00001976  00000+0  55834-2 0  2575
2 55158  87.8974   3.2827 0001763 115.6773 347.5896 13.11415655    13

Отслеживайте ONEWEB-0617 в реальном времени с AllMySat

Download on the App Store